Weather History for Bay City, TX

Change the Weather History Date:

Friday, October 5, 2012

  Actual Average (KLBX) Record (KLBX)
Temperature  
Mean Temperature 78 °F -  
Max Temperature 88 °F 81 °F 91 °F (2006)
Min Temperature 67 °F 63 °F 51 °F (2010)
Cooling Degree Days 12    
Growing Degree Days 28 (Base 50)    
Moisture  
Dew Point 69 °F    
Average Humidity 80    
Maximum Humidity 100    
Minimum Humidity 49    
Precipitation  
Precipitation 0.00 in - - ()
Sea Level Pressure  
Sea Level Pressure 30.06 in    
Wind  
Wind Speed 4 mph (SE)    
Max Wind Speed 12 mph    
Max Gust Speed 16 mph    
Visibility 10 miles    
Events      
Averages and records for this station are not official NWS values.
T = Trace of Precipitation, MM = Missing Value Source: NWS Daily Summary

Daily Weather History Graph

Daily Weather History Graph

Search for Another Location

Airport:

Trip Planner

Search our weather history database for the weather conditions in past years. The results will help you decide how hot, cold, wet, or windy it might be!

Date:

Astronomy

Oct. 05, 2012 Rise Set
Actual Time 7:19 AM CDT 7:03 PM CDT
Civil Twilight 6:55 AM CDT 7:27 PM CDT
Nautical Twilight 6:27 AM CDT 7:54 PM CDT
Astronomical Twilight 6:00 AM CDT 8:22 PM CDT
Moon 10:49 PM CDT (10/5) 12:05 PM CDT (10/5)
Length of Visible Light 12h 32m
Length of Day
11h 44m
Waning Gibbous, 74% of the Moon is Illuminated
Oct 5
Waning Gibbous
Oct 8
Last Quarter
Oct 15
New
Oct 21
First Quarter
Oct 29
Full

Hourly Weather History & Observations

Time (CDT) Temp. Heat Index Dew Point Humidity Pressure Visibility Wind Dir Wind Speed Gust Speed Precip Events Conditions
12:15 AM 72.1 °F - 72.1 °F 100% 30.10 in 10.0 mi ESE 3.5 mph - N/A   Clear
12:35 AM 71.6 °F - 71.6 °F 100% 30.10 in 10.0 mi Calm Calm - N/A   Clear
12:55 AM 71.4 °F - 71.4 °F 100% 30.09 in 10.0 mi ESE 3.5 mph - N/A   Clear
1:15 AM 70.9 °F - 70.9 °F 100% 30.09 in 7.0 mi ESE 3.5 mph - N/A   Clear
1:35 AM 70.7 °F - 70.7 °F 100% 30.09 in 7.0 mi ESE 3.5 mph - N/A   Clear
1:55 AM 70.3 °F - 70.3 °F 100% 30.09 in 7.0 mi East 3.5 mph - N/A   Clear
2:15 AM 70.5 °F - 70.5 °F 100% 30.08 in 7.0 mi Calm Calm - N/A   Clear
2:35 AM 69.8 °F - 69.8 °F 100% 30.08 in 5.0 mi ESE 4.6 mph - N/A   Clear
2:55 AM 68.9 °F - 68.9 °F 100% 30.08 in 10.0 mi ESE 4.6 mph - N/A   Clear
3:15 AM 70.0 °F - 70.0 °F 100% 30.08 in 10.0 mi ESE 4.6 mph - N/A   Clear
3:35 AM 70.5 °F - 70.5 °F 100% 30.07 in 10.0 mi ESE 4.6 mph - N/A   Clear
3:55 AM 70.3 °F - 70.3 °F 100% 30.07 in 10.0 mi ESE 4.6 mph - N/A   Scattered Clouds
4:15 AM 70.5 °F - 70.5 °F 100% 30.07 in 10.0 mi ESE 3.5 mph - N/A   Scattered Clouds
4:35 AM 70.3 °F - 70.3 °F 100% 30.07 in 10.0 mi ESE 4.6 mph - N/A   Clear
4:55 AM 70.0 °F - 70.0 °F 100% 30.07 in 10.0 mi ESE 4.6 mph - N/A   Clear
5:15 AM 70.0 °F - 70.0 °F 100% 30.07 in 10.0 mi ESE 5.8 mph - N/A   Clear
5:35 AM 69.8 °F - 69.8 °F 100% 30.08 in 10.0 mi ESE 4.6 mph - N/A   Clear
5:55 AM 69.8 °F - 69.8 °F 100% 30.08 in 10.0 mi ESE 4.6 mph - N/A   Clear
6:15 AM 69.8 °F - 69.8 °F 100% 30.08 in 10.0 mi ESE 4.6 mph - N/A   Clear
6:35 AM 69.6 °F - 69.6 °F 100% 30.09 in 10.0 mi ESE 4.6 mph - N/A   Clear
6:55 AM 69.8 °F - 69.8 °F 100% 30.09 in 10.0 mi East 3.5 mph - N/A   Clear
7:15 AM 69.1 °F - 69.1 °F 100% 30.09 in 10.0 mi East 3.5 mph - N/A   Clear
7:35 AM 68.5 °F - 68.5 °F 100% 30.10 in 10.0 mi Calm Calm - N/A   Clear
7:55 AM 68.4 °F - 68.4 °F 100% 30.10 in 10.0 mi Calm Calm - N/A   Clear
8:15 AM 71.6 °F - 71.6 °F 100% 30.10 in 10.0 mi Calm Calm - N/A   Clear
8:35 AM 74.3 °F - 74.3 °F 100% 30.10 in 10.0 mi SE 3.5 mph - N/A   Clear
8:55 AM 77.0 °F - 75.7 °F 96% 30.11 in 10.0 mi SE 4.6 mph - N/A   Clear
9:15 AM 79.3 °F - 75.2 °F 87% 30.11 in 10.0 mi SSE 4.6 mph - N/A   Clear
9:35 AM 81.3 °F 85.9 °F 72.5 °F 74% 30.11 in 10.0 mi SE 6.9 mph - N/A   Clear
9:55 AM 82.4 °F 87.0 °F 71.2 °F 69% 30.11 in 10.0 mi SSE 8.1 mph - N/A   Clear
10:15 AM 83.7 °F 87.7 °F 70.0 °F 63% 30.12 in 10.0 mi SSE 11.5 mph - N/A   Scattered Clouds
10:35 AM 84.6 °F 88.5 °F 69.1 °F 60% 30.11 in 10.0 mi SSE 8.1 mph - N/A   Scattered Clouds
10:55 AM 85.3 °F 88.8 °F 68.5 °F 57% 30.11 in 10.0 mi SSE 9.2 mph - N/A   Clear
11:15 AM 86.0 °F 89.4 °F 68.0 °F 55% 30.11 in 10.0 mi SSE 5.8 mph - N/A   Clear
11:35 AM 86.4 °F 89.4 °F 67.5 °F 53% 30.11 in 10.0 mi South 6.9 mph - N/A   Clear
11:55 AM 86.7 °F 89.9 °F 67.6 °F 53% 30.11 in 10.0 mi SSE 8.1 mph - N/A   Scattered Clouds
12:15 PM 87.3 °F 90.2 °F 66.9 °F 51% 30.10 in 10.0 mi SSE 6.9 mph - N/A   Clear
12:35 PM 87.8 °F 90.7 °F 67.1 °F 50% 30.09 in 10.0 mi South 6.9 mph - N/A   Clear
12:55 PM 87.4 °F 90.5 °F 67.1 °F 51% 30.09 in 10.0 mi SSE 4.6 mph - N/A   Scattered Clouds
1:15 PM 87.8 °F 91.4 °F 68.0 °F 52% 30.08 in 10.0 mi SSE 9.2 mph 16.1 mph N/A   Scattered Clouds
1:35 PM 88.7 °F 92.2 °F 68.0 °F 50% 30.07 in 10.0 mi South 6.9 mph - N/A   Scattered Clouds
1:55 PM 88.9 °F 92.2 °F 67.6 °F 49% 30.06 in 10.0 mi SSE 8.1 mph - N/A   Mostly Cloudy
2:15 PM 87.4 °F 90.8 °F 67.8 °F 52% 30.05 in 10.0 mi South 10.4 mph - N/A   Mostly Cloudy
2:35 PM 87.3 °F 90.2 °F 67.1 °F 51% 30.04 in 10.0 mi SSE 6.9 mph - N/A   Scattered Clouds
2:55 PM 87.8 °F 90.7 °F 66.9 °F 50% 30.03 in 10.0 mi South 9.2 mph - N/A   Scattered Clouds
3:15 PM 88.3 °F 91.6 °F 67.3 °F 50% 30.03 in 10.0 mi SSE 9.2 mph - N/A   Scattered Clouds
3:35 PM 87.3 °F 90.2 °F 67.3 °F 51% 30.02 in 10.0 mi SSE 8.1 mph - N/A   Scattered Clouds
3:55 PM 87.4 °F 90.1 °F 66.9 °F 50% 30.01 in 10.0 mi SSE 6.9 mph - N/A   Scattered Clouds
4:15 PM 86.5 °F 89.0 °F 66.6 °F 51% 30.01 in 10.0 mi SSE 8.1 mph - N/A   Clear
4:35 PM 87.1 °F 89.5 °F 66.2 °F 50% 30.01 in 10.0 mi SSE 4.6 mph - N/A   Clear
4:55 PM 86.9 °F 89.3 °F 66.0 °F 50% 30.00 in 10.0 mi SSE 9.2 mph - N/A   Clear
5:15 PM 86.4 °F 88.7 °F 66.0 °F 51% 30.00 in 10.0 mi South 6.9 mph - N/A   Clear
5:35 PM 85.6 °F 87.4 °F 64.9 °F 50% 29.99 in 10.0 mi SSE 6.9 mph - N/A   Clear
5:55 PM 84.7 °F 86.8 °F 65.7 °F 53% 29.99 in 10.0 mi SSE 6.9 mph - N/A   Clear
6:15 PM 83.5 °F 85.5 °F 65.8 °F 55% 30.00 in 10.0 mi SSE 5.8 mph - N/A   Clear
6:35 PM 81.9 °F 84.1 °F 66.4 °F 59% 29.99 in 10.0 mi SSE 3.5 mph - N/A   Clear
6:55 PM 79.5 °F - 67.1 °F 66% 29.99 in 10.0 mi SSE 4.6 mph - N/A   Clear
7:15 PM 76.8 °F - 67.5 °F 73% 30.00 in 10.0 mi SSE 5.8 mph - N/A   Clear
7:35 PM 75.0 °F - 67.6 °F 78% 29.99 in 10.0 mi SSE 4.6 mph - N/A   Clear
7:55 PM 74.3 °F - 67.6 °F 80% 30.00 in 10.0 mi SSE 4.6 mph - N/A   Clear
8:15 PM 73.4 °F - 67.5 °F 82% 30.00 in 10.0 mi SE 3.5 mph - N/A   Clear
8:35 PM 72.5 °F - 67.3 °F 84% 30.00 in 10.0 mi Calm Calm - N/A   Clear
8:55 PM 71.4 °F - 67.1 °F 86% 30.00 in 10.0 mi Calm Calm - N/A   Clear
9:15 PM 70.3 °F - 68.5 °F 94% 30.01 in 10.0 mi Calm Calm - N/A   Clear
9:35 PM 70.0 °F - 70.0 °F 100% 30.01 in 10.0 mi Calm Calm - N/A   Clear
9:55 PM 70.0 °F - 70.0 °F 100% 30.01 in 10.0 mi Calm Calm - N/A   Clear
10:15 PM 68.0 °F - 68.0 °F 100% 30.01 in 10.0 mi Calm Calm - N/A   Clear
10:35 PM 68.2 °F - 68.2 °F 100% 30.01 in 10.0 mi Calm Calm - N/A   Clear
10:55 PM 67.6 °F - 67.6 °F 100% 30.01 in 5.0 mi Calm Calm - N/A   Clear
11:15 PM 67.5 °F - 67.5 °F 100% 30.01 in 7.0 mi Calm Calm - N/A   Clear
11:35 PM 67.1 °F - 67.1 °F 100% 30.01 in 10.0 mi Calm Calm - N/A   Clear
11:55 PM 67.1 °F - 67.1 °F 100% 30.00 in 7.0 mi Calm Calm - N/A   Clear